This demonstration page uses our WeatherBlox Daily Observations layout. Learn more.

Left ArrowRight Arrow

39.08367, -84.50855

Hourly Observations for January 19, 2015

Temp ( °F °C ) Dew Point ( °F °C ) Humidity (%) Winds ( mph kmh ) Pressure ( in mb ) Visibility ( mi km ) Precip ( " mm )
12:53 am 00:53 Cloudy 39 3.9 30 -1.1 70 70 NNW 3 6 30.06 1018 10 16.0934 0 0
1:53 am 01:53 Cloudy 36 2.2 31 -0.6 82 82 Calm 30.06 1018 10 16.0934 0 0
2:53 am 02:53 Mostly Clear 33 0.6 29 -1.7 85 85 NE 5 7 30.06 1018 10 16.0934 0 0
3:53 am 03:53 Clear 30 -1.1 28 -2.2 92 92 S 3 6 30.06 1018 10 16.0934 0 0
4:53 am 04:53 Clear 27 -2.8 26 -3.3 96 96 S 3 6 30.06 1018 8 12.87472 0 0
5:53 am 05:53 Clear with Mist and Fog 26 -3.3 25 -3.9 96 96 Calm 30.07 1018 3 4.82802 0 0
5:58 am 05:58 Clear with Mist and Fog 25 -4 25 -4 100 100 S 3 6 30.09 1019 1.75 2.816345 0 0
6:11 am 06:11 Clear with Mist and Fog 25 -3.9 25 -3.9 100 100 S 5 7 30.09 1019 3 4.82802 0 0
6:53 am 06:53 Clear 26 -3.3 24 -4.4 92 92 Calm 30.08 1019 10 16.0934 0 0
7:53 am 07:53 Clear 25 -3.9 24 -4.4 96 96 Calm 30.07 1018 10 16.0934 0 0
8:53 am 08:53 Sunny 26 -3.3 25 -3.9 96 96 Calm 30.08 1019 10 16.0934 0 0
9:53 am 09:53 Sunny 28 -2.2 28 -2.2 100 100 Calm 30.08 1019 10 16.0934 0 0
10:53 am 10:53 Sunny 34 1.1 31 -0.6 89 89 Calm 30.07 1018 8 12.87472 0 0
11:53 am 11:53 Sunny 41 5 32 0 70 70 Calm 30.05 1018 10 16.0934 0 0
12:53 pm 12:53 Sunny 45 7.2 32 0 61 61 VRB 3 6 30.01 1016 10 16.0934 0 0
1:53 pm 13:53 Sunny 48 8.9 31 -0.6 52 52 ESE 3 6 29.98 1015 10 16.0934 0 0
2:53 pm 14:53 Sunny 49 9.4 29 -1.7 46 46 Calm 29.95 1014 10 16.0934 0 0
3:53 pm 15:53 Sunny 50 10 29 -1.7 44 44 Calm 29.95 1014 10 16.0934 0 0
4:53 pm 16:53 Sunny 49 9.4 29 -1.7 46 46 ENE 3 6 29.95 1014 10 16.0934 0 0
5:53 pm 17:53 Clear 42 5.6 29 -1.7 60 60 Calm 29.96 1015 10 16.0934 0 0
6:53 pm 18:53 Clear 35 1.7 29 -1.7 78 78 Calm 29.97 1015 10 16.0934 0 0
7:53 pm 19:53 Clear 31 -0.6 28 -2.2 89 89 Calm 29.97 1015 10 16.0934 0 0
8:53 pm 20:53 Clear 30 -1.1 26 -3.3 85 85 Calm 29.96 1015 10 16.0934 0 0
9:53 pm 21:53 Clear 28 -2.2 25 -3.9 88 88 Calm 29.95 1014 10 16.0934 0 0
10:53 pm 22:53 Clear 28 -2.2 25 -3.9 88 88 Calm 29.95 1014 10 16.0934 0 0
11:53 pm 23:53 Clear 29 -1.7 27 -2.8 92 92 N 6 9 29.96 1014 10 16.0934 0 0

Powered by AerisWeather